Location: Wanzleben
(52.0609°N, 11.4408°E)
Time: 07:24:17
(UTC+00:00)

Cosmos 1805 - Pass Details

Date: 18 September 2020
Orbit: 524 x 531 km, 82.5° (Epoch: 22 October)

Event Time Altitude Azimuth Distance (km) Brightness Sun altitude
Exits shadow 19:00:06 29° 94° (E) 1,003 4.1 -15.6°
Maximum altitude 19:00:13 29° 90° (E) 1,001 4.1 -15.6°
Drops below altitude 10° 19:03:38 10° 30° (NNE) 1,794 5.9 -16.1°
Sets 19:05:59 0° 19° (NNE) 2,691 6.9 -16.4°
